Back to catalog

STARLINK-30900

AliveCommunicationsVLEO
NORAD 58423·PAYLOAD·🇺🇸 United States

Launched Nov 22, 2023 from Cape Canaveral Space Force Station

Loading…

Next Passes (next 24 hours)

TLE

FreshSource: CelesTrak SupGP

Epoch: Sep 15, 2026, 02:37 UTC

1 58423C 23180X   26258.10951389 -.00065108  00000+0 -23580-2 0  2584
2 58423  43.0006  62.6261 0001523 263.7199 208.8758 15.27613070    19

Track STARLINK-30900 in real time with AllMySat

Download on the App Store